Back to catalog

CZ-6A DEB

AliveSSO
NORAD 55220·DEBRIS·🇨🇳 China

Launched Nov 11, 2022 from Taiyuan Satellite Launch Center

Loading…

Next Passes (next 24 hours)

TLE

FreshSource: Space-Track

Epoch: Sep 14, 2026, 07:51 UTC

1 55220U 22151WM  26257.32768069  .00000462  00000-0  17908-3 0  9998
2 55220  98.7058 295.4155 0088973  52.4186 308.5035 14.32450913194960

Track CZ-6A DEB in real time with AllMySat

Download on the App Store